Tracking 27122 objects as of 25-Mar-2023
HD Live streaming from Space Station
objects crossing your sky now

TITAN 3C TRANSTAGE R/B

Track TITAN 3C TRANSTAGE R/B now!


NORAD ID: 2868
Int'l Code: 1967-066G
Perigee: 33,217.0 km
Apogee: 33,851.7 km
Inclination: 1.0 °
Period: 1,322.2 minutes
Semi major axis: 39905 km
RCS: 1.6554 m2 (large)
Launch date: July 1, 1967
Source: United States (US)
Launch site: AIR FORCE EASTERN TEST RANGE (AFETR)

Note: This is a ROCKET BODY
Your satellite tracking list
Your tracking list is empty




NASA's NSSDC Master Catalog

Two Line Element Set (TLE):
1 02868U 67066G   23083.85049362 -.00000064  00000-0  00000-0 0  9993
2 02868   0.9667 228.6614 0079535  24.2904 236.8730  1.08907093115477
Source of the keplerian elements: AFSPC